Regional Weather Roundup
Issued by NWS

Home | Current Version | Previous Version | Graphics & Text | Print | Product List | Glossary On
Versions: 1 2 3 4 5 6 7 8 9 10 11 12 13 14 15 16 17 18 19 20 21 22 23 24 25 26 27 28 29 30 31 32 33 34 35 36 37 38 39 40 41 42 43 44 45 46 47 48 49 50
000
ASUS43 KMKX 270959
RWRWI

WISCONSIN REGIONAL WEATHER ROUNDUP
NATIONAL WEATHER SERVICE MILWAUKEE/SULLIVAN WI
400 AM CST TUE JAN 27 2015

NOTE: "FAIR" INDICATES FEW OR NO CLOUDS BELOW 12,000 FEET WITH NO
SIGNIFICANT WEATHER AND/OR OBSTRUCTIONS TO VISIBILITY.

WIZ001-002-006>008-014>016-023>028-271100-
NORTHWEST WISCONSIN

CITY           SKY/WX    TMP DP  RH WIND       PRES   REMARKS
SUPERIOR ARPT  CLOUDY    28  23  81 N3        30.08R
ASHLAND        CLOUDY    26  22  84 NW3       30.08R
HAYWARD        CLOUDY    27  23  85 N3        30.05R
SIREN          CLOUDY    29  23  76 N5        30.07R WCI  24
CUMBERLAND     CLOUDY    28  23  80 NW7       30.05R WCI  21
RICE LAKE      CLOUDY    28  24  84 CALM      30.06R
CHETEK         CLOUDY    28  24  84 NW5       30.05R WCI  23
LADYSMITH      CLOUDY    26  23  89 N8        30.05R WCI  17
EAU CLAIRE     NOT AVBL
MENOMONIE      CLOUDY    31  26  81 N5        30.06R WCI  26
NEW RICHMOND   CLOUDY    31  26  80 N6        30.06R WCI  25
OSCEOLA        CLOUDY    32  26  77 N6        30.10R WCI  26
$$

WIZ003>005-009-010-017-018-271100-
NORTH CENTRAL WISCONSIN

CITY           SKY/WX    TMP DP  RH WIND       PRES   REMARKS
MANITOWISH WTR CLOUDY    19  18  98 CALM      30.01R
ARBOR VITAE    CLOUDY    22  19  91 CALM      30.00R
WOODRUFF       CLOUDY    22  19  91 CALM      30.00R
RHINELANDER    CLOUDY    20  17  88 CALM      30.02R
EAGLE RIVER    CLOUDY    20  16  86 SE3       30.00R
LAND O LAKES   CLOUDY    20  18  92 CALM      30.01R
PHILLIPS       CLOUDY    20  18  94 CALM      30.01S
TOMAHAWK       CLOUDY    19  18  93 CALM      30.02R
MEDFORD        CLOUDY    20  19  96 CALM      30.01R FOG
MERRILL        CLOUDY    21  19  93 CALM      30.02R
$$

WIZ029-030-035-036-043>047-271100-
CENTRAL WISCONSIN

CITY           SKY/WX    TMP DP  RH WIND       PRES   REMARKS
WAUSAU         CLOUDY    22  19  89 N3        30.02R
MOSINEE        CLOUDY    21  21 100 N5        30.03R WCI  15
MARSHFIELD     CLOUDY    23  20  88 N8        30.03R FOG     WCI  14
STEVENS POINT  CLOUDY    20  19  95 N3        30.03R
WAUPACA        CLOUDY    26  23  89 N3        30.04R FOG
WAUTOMA        NOT AVBL
WISC RAPIDS    CLOUDY    23  19  85 N6        30.05R WCI  16
CAMP DOUGLAS   CLOUDY    23  23 100 NW5       30.04R WCI  17
$$

WIZ011>013-019>022-031-037>040-048>050-271100-
NORTHEAST WISCONSIN

CITY           SKY/WX    TMP DP  RH WIND       PRES   REMARKS
ANTIGO         CLOUDY    20  20  99 E6        30.01R FOG     WCI  13
SHAWANO        CLOUDY    25  22  87 E3        30.06R
OCONTO         CLOUDY    22  20  94 CALM      30.07R
STURGEON BAY   MOCLDY    19  16  86 NE5       30.08R WCI  13
GREEN BAY      CLOUDY    24  20  84 NE5       30.06R WCI  18
MANITOWOC      NOT AVBL
APPLETON       CLOUDY    25  23  93 E6        30.03R WCI  18
CLINTONVILLE   CLOUDY    25  21  86 CALM      30.04R
OSHKOSH        CLOUDY    25  20  81 NE3       30.02R
$$

WIZ032>034-041-042-053>061-271100-
SOUTHWEST WISCONSIN

CITY           SKY/WX    TMP DP  RH WIND       PRES   REMARKS
LA CROSSE      CLOUDY    31  23  72 N9        30.06R WCI  23
SPARTA         CLOUDY    27  26  96 N6        30.06R WCI  20
VIROQUA        CLOUDY    28  25  91 N17       30.00R WCI  15
BOSCOBEL       MOCLDY    30  25  81 N7        30.04R WCI  23
PRAIRIE DU CHI CLOUDY    32  26  77 N8        30.03R WCI  25
PLATTEVILLE    CLOUDY    29  27  92 NW9       29.99R WCI  21
$$

WIZ056-057-062-063-064-067-068-271100-
SOUTH CENTRAL WISCONSIN

CITY           SKY/WX    TMP DP  RH WIND       PRES   REMARKS
REEDSBURG      CLOUDY    24  22  93 N6        30.02R WCI  17
BARABOO/DELLS  CLOUDY    23  21  93 N3        30.02R FOG
LONE ROCK      CLOUDY    28  23  81 N9        30.03R WCI  19
MINERAL POINT  CLOUDY    28  28 100 N10       29.98R FOG     WCI  19
MADISON        CLOUDY    25  22  88 N6        30.01R FOG     WCI  18
MIDDLETON      CLOUDY    26  24  93 N6        30.00R WCI  20
WATERTOWN      CLOUDY    24  24  99 N5        29.99R FOG     WCI  18
MONROE         CLOUDY    27  27 100 N6        29.97R FOG     WCI  20
JANESVILLE     CLOUDY    28  27  93 CALM      29.98S FOG
$$

WIZ051-052-058>065-066-070>072-271100-
SOUTHEAST WISCONSIN

CITY           SKY/WX    TMP DP  RH WIND       PRES   REMARKS
MILWAUKEE      CLOUDY    28  22  78 N3        30.00R
WAUKESHA       MIX PCPN  23  23 100 N5        30.00R WCI  17
MILWAUKEE/TIMM CLOUDY    27  23  86 N6        30.00R WCI  20
RACINE         CLOUDY    28  23  81 E7        30.01R WCI  21
BURLINGTON     CLOUDY    23  22  96 N3        29.99R FOG
KENOSHA        CLOUDY    27  24  89 N7        29.99R WCI  19
FOND DU LAC    CLOUDY    25  22  88 NE3       30.02R FOG
SHEBOYGAN      CLOUDY    25  19  78 E7        30.03R WCI  17
WEST BEND      CLOUDY    27  23  86 NE5       30.00R WCI  21
JUNEAU         CLOUDY    23  22  93 N3        30.01R FOG
$$

LSZ147-162-271100-
LAKE SUPERIOR

STATION/POSITION TIME  TEMP    WIND        PRES    WAVE
                       AIR SEA DIR/SP/G            HT/PER
                 (UTC) (F)     (DEG/KT/KT) (MB)    (FT/S)
DEVILS ISLAND    0900   29     340/ 11/ 12 1018.8R
PORT WING        0900   29     350/  9/ 11 1018.3
SAXON HARBOR     0900   25        CALM     1017.6R
$$

LMZ867-665-643>646-271100-
LAKE MICHIGAN

STATION/POSITION TIME  TEMP    WIND        PRES    WAVE
                       AIR SEA DIR/SP/G            HT/PER
                 (UTC) (F)     (DEG/KT/KT) (MB)    (FT/S)
NORTHPORT PIER   0923   24     110/  9/ 11 1018.6R
SISTER BAY       0913   22        CALM       N/A
KEWAUNEE LAKESHO 0900   25     100/  7/ 11 1016.6R
SHEBOYGAN LAKESH 0900   26      80/ 12/ 14 1017.7R
PORT WASHINGTON  0940   29     100/  9/ 11 1017.3R
KENOSHA   LAKESH 0900   27     340/  5/  6 1014.9R
$$

TC  - TEMPERATURE IN CELSIUS
VSB - VISIBILITY IN STATUTE MILES
WCI - WIND CHILL INDEX
HX  - HEAT INDEX




USA.gov is the U.S. government's official web portal to all federal, state and local government web resources and services.